Flag for Pakistan Weather past 2 weeks in Peshawar, Pakistan

Now
91 °F

Hot.


Feels Like: 99 °F
Forecast: 70 / 101 °F
Wind: N/A

Location: Peshawar Airport

Current Time: Sep 2, 2014 at 12:07:01 PM

Latest Report: Sep 2, 2014 at 11:00 AM


Visibility: N/A

Pressure: 29.77 "Hg

Humidity: 52%

Dew point: 72 °F

Location of PeshawarLocation

Historic Weather in Peshawar — Graph

°F

Peshawar temperature yesterday

Maximum temperature yesterday: 93 °F (at 3:00 PM)
Minimum temperature yesterday: 79 °F (at 4:59 AM)
Average temperature yesterday: 85 °F

Past Weeks' High & Low Weather Summary

 TemperatureHumidityPressure
High100 °F (Aug 18, 5:00 PM)89% (Aug 22, 6:00 AM)29.80 "Hg (Aug 22, 6:00 AM)
Low72 °F (Aug 21, 9:00 PM)35% (Aug 18, 3:00 PM)29.50 "Hg (Aug 21, 5:00 PM)
Average86 °F59%29.67 "Hg
* Reported Aug 18 11:00 AM — Sep 2 11:00 AM, Peshawar, Weather by CustomWeather, © 2014

Note: Actual official high and low records may vary slightly from our data, if they occured in-between our weather recording intervals... More about our weather records

Advertising

Peshawar weather history for previous 24 hours

 ConditionsComfort  
Time TempWeatherWind HumidityBarometerVisibility
11:00 AM
Sep 2
91 °FHot.N/A52%29.77 "HgN/A
10:00 AM88 °FWarm.N/A59%29.77 "HgN/A
9:00 AM84 °FWarm.N/A62%29.77 "HgN/A
8:00 AM81 °FWarm.N/A66%29.77 "HgN/A
7:00 AM77 °FPartly sunny.7 mph69%29.74 "Hg2 mi
6:00 AM77 °FPartly sunny.5 mph74%29.74 "Hg2 mi
5:00 AM77 °FPassing clouds.5 mph69%29.74 "Hg2 mi
4:00 AM77 °FHaze.5 mph61%29.74 "Hg2 mi
3:00 AM79 °FWarm.N/A58%29.74 "HgN/A
2:00 AM79 °FWarm.N/A54%29.74 "HgN/A
1:00 AM81 °FHaze.No wind51%29.74 "Hg2 mi
12:00 AM81 °FWarm.N/A48%29.71 "HgN/A
11:00 PM
Sep 1
82 °FWarm.N/A51%29.71 "HgN/A
10:00 PM84 °FWarm.N/A48%29.74 "HgN/A
9:00 PM84 °FWarm.N/A48%29.74 "HgN/A
8:00 PM86 °FWarm.N/A43%29.68 "HgN/A
7:00 PM88 °FWarm.N/A40%29.68 "HgN/A
6:00 PM90 °FScattered clouds.14 mph41%29.65 "Hg2 mi
5:00 PM90 °FHot.N/A38%29.65 "HgN/A
4:00 PM91 °FHot.N/A38%29.65 "HgN/A
3:00 PM93 °FExtremely hot.N/A41%29.65 "HgN/A
2:00 PM90 °FHot.N/A43%29.65 "HgN/A
1:00 PM88 °FWarm.N/A46%29.71 "HgN/A
12:00 PM86 °FWarm.N/A52%29.74 "HgN/A
Weather by CustomWeather, © 2014

See weather overviewHow to use our weather pages